Antwerp, Belgium

9:40 PM CET on December 03, 2016 (GMT +0100)
Deurne

Weather History for EBAW - January, 2013

Change the Weather History Date:

Thursday, January 17, 2013

  Actual Average Record
Temperature  
Mean Temperature 20 °F -  
Max Temperature 21 °F 44 °F 53 °F (2007)
Min Temperature 18 °F 35 °F 18 °F (2013)
Degree Days  
Heating Degree Days 46    
Moisture  
Dew Point 18 °F    
Average Humidity 90    
Maximum Humidity 100    
Minimum Humidity 83    
Precipitation  
Precipitation 0.00 in - - ()
Sea Level Pressure  
Sea Level Pressure 30.08 in    
Wind  
Wind Speed 2 mph ()    
Max Wind Speed 6 mph    
Max Gust Speed -    
Visibility 1.2 miles    
Events Fog , Snow    
Averages and records for this station are not official NWS values.
T = Trace of Precipitation, MM = Missing Value Source: Averaged Metar Reports

Daily Weather History Graph

Daily Weather History Graph

Search for Another Location

Airport or City:

Trip Planner

Search our weather history database for the weather conditions in past years. The results will help you decide how hot, cold, wet, or windy it might be!

Date:

Astronomy

Jan. 17, 2013 Rise Set
Actual Time 8:37 AM CET 5:07 PM CET
Civil Twilight 7:59 AM CET 5:45 PM CET
Nautical Twilight 7:18 AM CET 6:26 PM CET
Astronomical Twilight 6:39 AM CET 7:06 PM CET
Moon 10:48 AM CET (1/17) No Moon Set
Length of Visible Light 9h 45m
Length of Day
8h 29m
Waxing Crescent, 35% of the Moon is Illuminated
Jan 17
Waxing Crescent
Jan 19
First Quarter
Jan 27
Full
Feb 3
Last Quarter
Feb 10
New

Hourly Weather History & Observations

Time (CET) Temp. Windchill Dew Point Humidity Pressure Visibility Wind Dir Wind Speed Gust Speed Precip Events Conditions
12:20 AM 21.2 °F - 19.4 °F 93% 30.01 in - Variable 2.3 mph - N/A Fog Light Freezing Fog
12:50 AM 21.2 °F - 19.4 °F 93% 30.01 in 0.2 mi NE 1.2 mph - N/A Fog Light Freezing Fog
1:00 AM 20 °F - 20 °F 100% 30.02 in 0 mi NE 2.2 mph - - Fog Fog
1:20 AM 19.4 °F - 19.4 °F 100% 30.01 in 0.2 mi Variable 2.3 mph - N/A Fog Light Freezing Fog
1:50 AM 21.2 °F - 19.4 °F 93% 30.01 in 0.2 mi Variable 1.2 mph - N/A Fog Light Freezing Fog
2:20 AM 21.2 °F - 19.4 °F 93% 30.04 in 0.2 mi Variable 1.2 mph - N/A Fog Light Freezing Fog
2:50 AM 21.2 °F - 19.4 °F 93% 30.04 in 0.2 mi Variable 2.3 mph - N/A Fog Light Freezing Fog
3:20 AM 21.2 °F 16.4 °F 19.4 °F 93% 30.04 in 0.4 mi NE 3.5 mph - N/A Fog Light Freezing Fog
3:50 AM 19.4 °F - 17.6 °F 93% 30.04 in - Variable 2.3 mph - N/A Fog Light Freezing Fog
4:00 AM 20 °F - 18 °F 91% 30.06 in 0 mi NNE 2.2 mph - - Fog Fog
4:20 AM 19.4 °F - 17.6 °F 93% 30.04 in 1.0 mi Variable 1.2 mph - N/A   Overcast
4:50 AM 19.4 °F - 17.6 °F 93% 30.06 in 1.1 mi Variable 2.3 mph - N/A   Overcast
5:20 AM 19.4 °F - 17.6 °F 93% 30.06 in 1.3 mi Calm Calm - N/A   Overcast
5:50 AM 19.4 °F - 17.6 °F 93% 30.06 in 1.4 mi Variable 1.2 mph - N/A   Overcast
6:20 AM 19.4 °F - 17.6 °F 93% 30.06 in 1.7 mi Variable 1.2 mph - N/A   Overcast
6:50 AM 19.4 °F 14.3 °F 17.6 °F 93% 30.06 in 1.7 mi East 3.5 mph - N/A   Mostly Cloudy
7:00 AM 19 °F - 17 °F 86% 30.09 in 2 mi East 2.2 mph - -   Mist
7:20 AM 19.4 °F - 15.8 °F 86% 30.06 in 1.7 mi Variable 1.2 mph - N/A   Mostly Cloudy
7:50 AM 19.4 °F - 17.6 °F 93% 30.06 in 1.6 mi Variable 2.3 mph - N/A   Mostly Cloudy
8:20 AM 19.4 °F - 15.8 °F 86% 30.09 in 1.7 mi Variable 2.3 mph - N/A   Mostly Cloudy
8:50 AM 19.4 °F - 15.8 °F 86% 30.09 in 1.7 mi WNW 2.3 mph - N/A   Mostly Cloudy
9:20 AM 19.4 °F - 17.6 °F 93% 30.09 in 1.7 mi South 2.3 mph - N/A   Mostly Cloudy
9:50 AM 19.4 °F - 17.6 °F 93% 30.09 in 1.6 mi Variable 2.3 mph - N/A   Mostly Cloudy
10:20 AM 19.4 °F 14.3 °F 17.6 °F 93% 30.12 in 1.6 mi ENE 3.5 mph - N/A   Mostly Cloudy
10:50 AM 21.2 °F 16.4 °F 17.6 °F 86% 30.12 in 1.6 mi East 3.5 mph - N/A   Mostly Cloudy
11:20 AM 19.4 °F 14.3 °F 17.6 °F 93% 30.12 in 1.5 mi ESE 3.5 mph - N/A   Mostly Cloudy
11:50 AM 19.4 °F - 17.6 °F 93% 30.12 in 1.4 mi Variable 2.3 mph - N/A   Mostly Cloudy
12:20 PM 19.4 °F - 17.6 °F 93% 30.12 in 1.2 mi Variable 2.3 mph - N/A   Mostly Cloudy
12:50 PM 19.4 °F 14.3 °F 17.6 °F 93% 30.12 in 1.2 mi SSW 3.5 mph - N/A   Mostly Cloudy
1:00 PM 20 °F - 18 °F 86% 30.13 in 1 mi SSW 2.2 mph - -   Mist
1:20 PM 21.2 °F - 17.6 °F 86% 30.09 in 1.2 mi Variable 2.3 mph - N/A   Mostly Cloudy
1:50 PM 21.2 °F - 17.6 °F 86% 30.12 in 1.3 mi Variable 2.3 mph - N/A   Mostly Cloudy
2:20 PM 21.2 °F - 17.6 °F 86% 30.09 in 1.3 mi Variable 2.3 mph - N/A   Mostly Cloudy
2:50 PM 21.2 °F 13.6 °F 17.6 °F 86% 30.09 in 1.3 mi East 5.8 mph - N/A   Mostly Cloudy
3:20 PM 21.2 °F - 17.6 °F 86% 30.09 in 1.3 mi Variable 1.2 mph - N/A   Mostly Cloudy
3:50 PM 21.2 °F - 17.6 °F 86% 30.12 in 1.4 mi East 1.2 mph - N/A   Mostly Cloudy
4:00 PM 21 °F - 18 °F 83% 30.13 in 1 mi East 2.2 mph - -   Mist
4:20 PM 21.2 °F - 17.6 °F 86% 30.12 in 1.4 mi Variable 2.3 mph - N/A   Mostly Cloudy
4:50 PM 21.2 °F - 17.6 °F 86% 30.09 in 1.5 mi Variable 2.3 mph - N/A   Mostly Cloudy
5:20 PM 21.2 °F - 17.6 °F 86% 30.12 in 1.4 mi ESE 2.3 mph - N/A   Mostly Cloudy
5:50 PM 21.2 °F 14.9 °F 17.6 °F 86% 30.09 in 1.4 mi East 4.6 mph - N/A   Mostly Cloudy
6:20 PM 21.2 °F 16.4 °F 17.6 °F 86% 30.12 in 1.5 mi ESE 3.5 mph - N/A   Mostly Cloudy
6:50 PM 21.2 °F 14.9 °F 17.6 °F 86% 30.12 in 1.2 mi ESE 4.6 mph - N/A   Mostly Cloudy
7:00 PM 20 °F - 18 °F 87% 30.13 in 1 mi ESE 4.5 mph - -   Mist
7:20 PM 21.2 °F 13.6 °F 17.6 °F 86% 30.12 in 1.2 mi ESE 5.8 mph - N/A   Mostly Cloudy
7:50 PM 21.2 °F 16.4 °F 17.6 °F 86% 30.09 in 1.2 mi ESE 3.5 mph - N/A   Overcast
8:20 PM 21.2 °F - 17.6 °F 86% 30.09 in 1.2 mi ENE 2.3 mph - N/A   Mostly Cloudy
8:50 PM 21.2 °F - 19.4 °F 93% 30.09 in 1.4 mi Variable 2.3 mph - N/A   Mostly Cloudy
9:20 PM 21.2 °F - 17.6 °F 86% 30.09 in 1.4 mi Variable 2.3 mph - N/A   Mostly Cloudy
9:50 PM 21.2 °F 14.9 °F 17.6 °F 86% 30.06 in 1.4 mi ENE 4.6 mph - N/A   Mostly Cloudy
10:00 PM 21 °F - 18 °F 84% 30.09 in 1 mi ENE 4.5 mph - -   Mist
10:20 PM 21.2 °F - 17.6 °F 86% 30.06 in 1.5 mi East 2.3 mph - N/A   Mostly Cloudy
10:50 PM 21.2 °F - 17.6 °F 86% 30.06 in 1.5 mi Variable 1.2 mph - N/A   Mostly Cloudy
11:20 PM 21.2 °F - 19.4 °F 93% 30.06 in 1.5 mi East 2.3 mph - N/A   Overcast
11:50 PM 21.2 °F - 19.4 °F 93% 30.06 in 1.4 mi Variable 1.2 mph - N/A Snow Light Snow Showers